Regional Weather Roundup
Issued by NWS

Home | Current Version | Previous Version | Text Only | Print | Product List | Glossary Off
Versions: 1 2 3 4 5 6 7 8 9 10 11 12 13 14 15 16 17 18 19 20 21 22 23 24 25 26 27 28 29 30 31 32 33 34 35 36 37 38 39 40 41 42 43 44 45 46 47 48 49 50

000
ASUS43 KLSX 251659
RWRMO

WEATHER SUMMARY FOR MISSOURI
NATIONAL WEATHER SERVICE SPRINGFIELD MO
1100 AM CST SUN JAN 25 2015

NOTE: "FAIR" INDICATES FEW OR NO CLOUDS BELOW 12,000 FEET WITH NO
       SIGNIFICANT WEATHER AND/OR OBSTRUCTIONS TO VISIBILITY.
       CURRENT SKY AND/OR WEATHER CONDITIONS ARE NOT AVAILABLE FOR
       CHILLICOTHE AND FARMINGTON.

MOZ001>031-035>038-043-044-053-054-251800-
...NORTHERN AND WESTERN MISSOURI...

CITY           SKY/WX    TMP DP  RH WIND       PRES   REMARKS
KANSAS CTY INT DRIZZLE   37  34  89 NW17      29.79R WCI  27
KANSAS C DTWN  CLOUDY    39  33  79 NW16      29.79R
LEE`S SUMMIT   CLOUDY    37  33  85 NW17G26   29.77R WCI  27
ST JOSEPH      CLOUDY    38  34  85 N28G36    29.83R WCI  26
CHILLICOTHE      N/A     38  35  89 NW12G18   29.74R
KIRKSVILLE     LGT RAIN  38  37  97 N17       29.69R FOG     WCI  28

$$
MOZ066>068-077>081-088>096-101>105-251800-
...SOUTHWEST MISSOURI...

CITY           SKY/WX    TMP DP  RH WIND       PRES   REMARKS
SPRINGFIELD    LGT RAIN  41  37  86 NW20G31   29.72R FOG
JOPLIN         CLOUDY    43  33  68 NW20G28   29.82R

$$
MOZ032>034-039>042-045>050-055>058-069>072-251800-
...CENTRAL MISSOURI...

CITY           SKY/WX    TMP DP  RH WIND       PRES   REMARKS
COLUMBIA       CLOUDY    41  40  96 W14       29.63R FOG
JEFFERSON CITY CLOUDY    43  40  89 W15       29.65R FOG
ROLLA          CLOUDY    44  37  76 NW9       29.62R
SEDALIA        LGT RAIN  39  36  89 NW18G25   29.71R FOG     WCI  30
OSAGE BEACH    CLOUDY    43  37  81 W8G17     29.67R

$$
MOZ051-052-059>065-251800-
...EAST CENTRAL MISSOURI...

CITY           SKY/WX    TMP DP  RH WIND       PRES   REMARKS
ST LOUIS INTL  CLOUDY    48  43  82 W8        29.59R HAZE
SPIRIT OF STL  CLOUDY    47  42  83 W10       29.59R
ST CHARLES     CLOUDY    45  44  97 W6        29.59R FOG

$$
MOZ072>076-082>087-097>100-106>115-251800-
...SOUTH CENTRAL AND SOUTHEAST MISSOURI...

CITY           SKY/WX    TMP DP  RH WIND       PRES   REMARKS
CAPE GIRARDEAU LGT RAIN  41  40  96 S7        29.63F FOG
FARMINGTON     CLOUDY    45  39  81 MISG      29.63F
POPLAR BLUFF   RAIN      42  40  92 W5        29.63F FOG
WEST PLAINS    CLOUDY    48  41  76 W8        29.65R

$$


USA.gov is the U.S. government's official web portal to all federal, state and local government web resources and services.